Other Public Products
Issued by NWS Grand Forks, ND

Home | Current Version | Previous Version | Graphics & Text | Print | Product List | Glossary On
Versions: 1 2 3 4 5 6 7 8 9 10 11 12 13 14 15 16 17 18 19 20 21 22 23 24 25 26 27 28 29 30 31 32 33 34 35 36 37 38 39 40 41 42 43 44 45 46 47 48 49 50
000
FPUS83 KFGF 240631
OPUFGF
PRAIRIE TO PINES WEATHER ROUNDUP
NATIONAL WEATHER SERVICE EASTERN NORTH DAKOTA/GRAND FORKS ND
100 AM CDT WED AUG 24 2016

 **SATELLITE DATA USED TO AUGMENT SKY COVER AT AUTOMATED STATIONS**
 *****  WEATHER ACROSS EASTERN NORTH DAKOTA  *****

CITY           SKY/WX    TMP DP  RH WIND       PRES   REMARKS
GRAND FORKS    MOCLDY    65  57  75 W7        29.79R
6HR MIN TEMP:  65; 6HR MAX TEMP:  82; 6HR PCP: TRACE;

GRAND FORKS AF CLEAR     62  57  83 W8        29.80R
GRAND CITY NWS   N/A     64 N/A N/A NW2         N/A
BUXTON           N/A     67  66  96 CALM        N/A
DEVILS LAKE    CLEAR     61  53  75 W8        29.83R
6HR MIN TEMP:  60; 6HR MAX TEMP:  77;

FARGO          CLOUDY    73  57  57 NW13      29.80R
6HR MIN TEMP:  73; 6HR MAX TEMP:  85;

WAHPETON ARPT  CLOUDY    68  64  88 NW3       29.81S
$$

 *****  WEATHER ACROSS CENTRAL AND WESTERN NORTH DAKOTA  *****

CITY           SKY/WX    TMP DP  RH WIND       PRES   REMARKS
JAMESTOWN      CLEAR     58  51  78 NW7       29.86S
6HR MIN TEMP:  57; 6HR MAX TEMP:  74;

BISMARCK       CLEAR     59  47  64 NW7       29.92R
6HR MIN TEMP:  55; 6HR MAX TEMP:  79;

MINOT          CLEAR     63  47  55 SW13      29.85S
6HR MIN TEMP:  63; 6HR MAX TEMP:  79;

MINOT AFB      CLEAR     60  47  60 W8        29.84S
6HR MIN TEMP:  58; 6HR MAX TEMP:  77;

GARRISON         N/A     58  47  66 W10       29.90S
6HR MIN TEMP:  56; 6HR MAX TEMP:  77;

WILLISTON      CLEAR     61  47  59 W15G24    29.92S
6HR MIN TEMP:  61; 6HR MAX TEMP:  76;

DICKINSON      CLEAR     51  41  68 W8        29.98R
6HR MIN TEMP:  51; 6HR MAX TEMP:  75;

HETTINGER      CLEAR     48  40  73 NW5       30.03R
6HR MIN TEMP:  47; 6HR MAX TEMP:  78;

$$

 *****  OTHER OBSERVATIONS NORTHEAST NORTH DAKOTA  *****

CITY           SKY/WX    TMP DP  RH WIND       PRES   REMARKS
WALHALLA       FAIR      59  55  88 W7        29.78R
LANGDON        CLOUDY    54  52  94 W8        29.81S
CAVALIER         N/A     59  54  82 W6        29.78R
GRAFTON        FAIR      63  55  77 W9        29.80S
CANDO          FAIR      52  52 100 SW3       29.85S
FORT TOTTEN      N/A     60  50  69 CALM      29.95S
ROLLA          FAIR      54  52  94 SW8       29.83R
RUGBY          NOT AVBL
 ***** THE ABOVE OBSERVATIONS ARE NON NWS ARE NOT QUALITY
        CONTROLLED AND MAY MIS-REPORT RAIN FOR SNOW...
$$

 *****  OTHER OBSERVATIONS SOUTHEAST NORTH DAKOTA *****

CITY           SKY/WX    TMP DP  RH WIND       PRES   REMARKS
COOPERSTOWN    NOT AVBL
VALLEY CITY    FAIR      59  54  82 W9        29.88R
OAKES            N/A    N/A N/A N/A MISG        N/A
GWINNER        FAIR      66  52  59 W14       29.86R
SHEYENNE NWR     N/A     71  48  43 NW6       29.95S
BUFFALO          N/A     60  51  72 CALM        N/A
WYNDMERE         N/A     72  55  56 NW6         N/A
 ***** THE ABOVE OBSERVATIONS ARE NON NWS ARE NOT QUALITY
       CONTROLLED AND MAY MIS-REPORT RAIN FOR SNOW...
$$

  *****  WEATHER ACROSS NORTHERN MINNESOTA  *****

CITY           SKY/WX    TMP DP  RH WIND       PRES   REMARKS
FLAG ISLAND    MOCLDY    73  66  78 W3        29.69R
WARROAD        CLOUDY    72  68  88 W9        29.73S
ROSEAU         CLEAR     72  66  83 W9        29.73S
HALLOCK        PTCLDY    66  57  72 W12       29.76R
THF RVR FALLS  CLOUDY    70  64  81 W12       29.78S
6HR MIN TEMP:  70; 6HR MAX TEMP:  82; 6HR PCP: TRACE;

HALSTAD          N/A     71  61  69 NW6         N/A
FOSSTON        CLOUDY    66  63  88 SW7       29.80F
BAUDETTE       CLOUDY    73  64  73 SW13      29.74R
6HR MIN TEMP:  73; 6HR MAX TEMP:  83;

WASKISH        MOCLDY    72  70  94 S7        29.77S
CROOKSTON      CLOUDY    70  57  64 W9        29.80R
$$
  *****  WEATHER ACROSS CENTRAL AND WEST MINNESOTA  *****

CITY           SKY/WX    TMP DP  RH WIND       PRES   REMARKS
BEMIDJI        MOCLDY    70  68  94 S6        29.80S
PARK RAPIDS    CLEAR     69  66  90 SW7       29.82S
6HR MIN TEMP:  69; 6HR MAX TEMP:  82;

WADENA         MOCLDY    64  64 100 CALM      29.81S FOG
DETROIT LAKES  CLOUDY    70  64  83 SW7       29.83R
MOORHEAD       CLOUDY    72  61  68 NW9       29.82R
FERGUS FALLS   CLOUDY    68  68 100 S7        29.83R
ELBOW LAKE     CLOUDY    66  66  98 S7        29.82F
MORRIS MN      CLOUDY    66  66 100 S5        29.80F
STAPLES        MOCLDY    66  64  94 S6        29.81F
WHEATON        MOCLDY    70  68  94 CALM      29.82S
$$
  *****  WEATHER ELSEWHERE ACROSS MINNESOTA  *****

CITY           SKY/WX    TMP DP  RH WIND       PRES   REMARKS
DULUTH         CLOUDY    69  65  86 S9        29.85F
6HR MIN TEMP:  69; 6HR MAX TEMP:  79;

INTRNTL FALLS  CLEAR     71  68  90 S3        29.77R
6HR MIN TEMP:  71; 6HR MAX TEMP:  83;

ELY            CLOUDY    70  63  78 S5        29.84F
CLOQUET        PTCLDY    66  63  88 SE3       29.84F
BRAINERD       CLOUDY    65  63  93 S7        29.83F
6HR MIN TEMP:  65; 6HR MAX TEMP:  78;

HIBBING        PTCLDY    66  63  90 CALM      29.83F
6HR MIN TEMP:  66; 6HR MAX TEMP:  78;

ALEXANDRIA     PTCLDY    67  64  90 S5        29.83F
6HR MIN TEMP:  66; 6HR MAX TEMP:  78;

SAINT CLOUD    CLOUDY    65  65 100 S5        29.82F
6HR MIN TEMP:  66; 6HR MAX TEMP:  77;

MINNEAPOLIS    CLOUDY    69  65  86 SE7       29.82F
6HR MIN TEMP:  68; 6HR MAX TEMP:  77; 6HR PCP:  1.01;

$$

  *****  WEATHER ACROSS SOUTH DAKOTA  *****

CITY           SKY/WX    TMP DP  RH WIND       PRES   REMARKS
SIOUX FALLS    CLOUDY    72  71  97 CALM      29.83R
6HR MIN TEMP:  72; 6HR MAX TEMP:  74;

BROOKINGS      CLOUDY    70  70 100 W9        29.84R FOG
WATERTOWN      PTCLDY    71  65  81 NW14      29.85S
6HR MIN TEMP:  69; 6HR MAX TEMP:  75;

HURON          CLEAR     59  54  83 NW7       29.89R
6HR MIN TEMP:  59; 6HR MAX TEMP:  80;

SISSETON         N/A     72  58  61 N14       29.82R
ABERDEEN       PTCLDY    63  49  60 NW12      29.89R
6HR MIN TEMP:  63; 6HR MAX TEMP:  80;

MITCHELL       CLEAR     65  59  81 NW10      29.89R
PIERRE         CLEAR     57  46  66 NW6       29.92R
6HR MIN TEMP:  56; 6HR MAX TEMP:  82;

MOBRIDGE       CLEAR     58  47  66 CALM      29.91S
RAPID CITY     CLOUDY    59  34  39 NW13      30.09R
6HR MIN TEMP:  55; 6HR MAX TEMP:  79;

$$

  *****  SOME WEATHER IN NEARBY STATES *****

CITY           SKY/WX    TMP DP  RH WIND       PRES   REMARKS
GLASGOW MT     PTCLDY    58  48  69 W22G35    30.02R
6HR MIN TEMP:  58; 6HR MAX TEMP:  71;

GREAT FALLS MT CLOUDY    56  43  61 N9        30.27R
6HR MIN TEMP:  56; 6HR MAX TEMP:  66; 6HR PCP: TRACE;

CHEYENNE WY    CLOUDY    63  40  42 W7        30.18S
6HR MIN TEMP:  63; 6HR MAX TEMP:  78;

SCOTTSBLUFF NE PTCLDY    57  45  64 E6        30.09S
6HR MIN TEMP:  57; 6HR MAX TEMP:  83;

OMAHA NE       CLOUDY    69  64  84 S12       29.87  THUNDER
6HR MIN TEMP:  66; 6HR MAX TEMP:  82; 6HR PCP:  1.11;

DES MOINES IA  CLOUDY    78  73  84 S12       29.84S THUNDER
6HR MIN TEMP:  77; 6HR MAX TEMP:  80;

DAVENPORT IA   CLOUDY    72  68  87 S13       30.00F
6HR MIN TEMP:  72; 6HR MAX TEMP:  75;

CHICAGO IL     CLOUDY    74  62  66 S15       30.08R
6HR MIN TEMP:  73; 6HR MAX TEMP:  76;

EAU CLAIRE WI  CLOUDY    69  67  93 SE8       29.85F
6HR MIN TEMP:  68; 6HR MAX TEMP:  77; 6HR PCP:  0.22;

LA CROSSE WI   LGT RAIN  68  32  26 S17       29.90F
6HR MIN TEMP:  68; 6HR MAX TEMP:  78; 6HR PCP:  0.52;

$$

  *****  SOME NATIONAL WEATHER *****

CITY           SKY/WX    TMP DP  RH WIND       PRES   REMARKS
LA GUARDIA NY  CLEAR     73  58  59 SW7       30.26F
6HR MIN TEMP:  73; 6HR MAX TEMP:  79;                              C1F1C2F2C3F3C4F4C5F5C6F6C7F7C8F8C9F9CaFaCbFbCcFcCdFdCe!



USA.gov is the U.S. government's official web portal to all federal, state and local government web resources and services.